SL-16 DEB, 26968

Orbit data source: Space-Track

SL-16 DEB, 26968 is space debris in LEO originally from a launch on Fri, 26 Mar 1993 UTC launched from the Tyuratam Missile And Space Complex (TTMTR). Debris objects in space refer to the collection of defunct objects orbiting the Earth. Examples of debris include non-operational satellites, rocket bodies, and fragments generated from explosions, collisions, or faulty payload assembly.

Loading next visibility...
Identifier
26968, 1993-016AJ
Orbit
LEO
Country
Flag of CISCIS
Related business
Manufacturer
Unknown
Mission
Spacecraft
Bus & Motor
Unknown
Mass
Unknown
Launch date (UTC)
1993-03-26 (32 years ago)
Launch vehicle
Unknown
Launch site
Tyuratam Missile And Space Complex (TTMTR)
Object type
Payload
Rocket body
Debris
Shape & HBR
Unknown
Radar Cross Section
Small (<0.1 m²)

Expand to show TLE details & history
Last TLE update: 22 hours ago

TLE from 22 hours ago
0 SL-16 DEB
1 26968U 93016AJ  25261.11061323  .00002122  00000-0  66128-3 0  9996
2 26968  70.9955 141.2582 0009371 296.7114 215.3222 14.42022103690057
Epoch: 2025-09-18T02:39Z
TLE epoch observation values (Epoch: 2025-09-18T02:39:16.983Z)
Latitude
26.42389°
Longitude
-85.64096°
Altitude
760.001 km
Speed
7.474 km/s
True Right ascension
20h 45m 49s
True Declination
26° 17' 14"
Sunlit
Object was in full shadow at epoch
Visualization orbit readout
Latitude
Unknown
Longitude
Unknown
Altitude
Unknown
Speed
Unknown
Apparent Right ascension
Unknown
Apparent Declination
Unknown
Sunlit
N/A
Visualization observer readout
Local Sidereal Time
17:29:47
Azimuth
Unknown
Elevation
Unknown
Doppler factor
Unknown
Orbital elements
Apogee altitude
756.404 km
Perigee altitude
743.045 km
Semi-major axis
7,127.861 km
Eccentricity
0.00094
Inclination
70.9955°
RAAN
141.2582°
Arg. of periapsis
296.7114°
True anomaly
215.26017°
Mean anomaly
215.3222°
Eccentric anomaly
215.29118°
Mean motion
3.60665 °/min
Orbital period
99.82 mins
BSTAR
0.00066128
Loading maneuver chart data...
Computing Atmospheric mass density...
Loading historical data...
Loading historical data...
Loading historical data...
Loading historical data...
Loading historical data...
Loading historical data...
Loading historical data...

Documentation

Showing up to 5 results
|